Location: Kuffner-Sternwarte
(48.2130°N, 16.2960°E)
Time: 15:21:35
(UTC+02:00)

COROT - Pass Details

Date: 27 March 2017
Orbit: 600 x 890 km, 90.0° (Epoch: 27 March)

Event Time Altitude Azimuth Distance (km) Brightness Sun altitude
Rises 00:36:51 0° 10° (N) 3,103 10.0 -39.0°
Reaches altitude 10° 00:39:18 10° 20° (NNE) 2,227 9.0 -39.0°
Enters shadow 00:40:14 15° 27° (NNE) 1,924 8.5 -39.0°
